Time,TemperatureF,DewpointF,PressureIn,WindDirection,WindDirectionDegrees,WindSpeedMPH,WindSpeedGustMPH,Humidity,HourlyPrecipIn,Conditions,Clouds,dailyrainin,SoftwareType,DateUTC
2013-07-27 00:00:00,65.0,-99.9,-100.00,West,265,1.0,12.0,-999,0.00,,,0.20,,2013-07-27 05:00:00,
2013-07-27 00:43:00,65.0,-99.9,-100.00,West,265,1.0,12.0,-999,0.00,,,0.20,,2013-07-27 05:43:00,
2013-07-27 00:52:00,65.0,-99.9,-100.00,West,265,1.0,12.0,-999,0.00,,,0.20,,2013-07-27 05:52:00,
2013-07-27 01:00:00,64.0,-99.9,-100.00,West,266,1.0,8.0,-999,0.00,,,0.19,,2013-07-27 06:00:00,
2013-07-27 01:43:00,64.0,-99.9,-100.00,West,266,1.0,8.0,-999,0.00,,,0.19,,2013-07-27 06:43:00,
2013-07-27 01:52:00,64.0,-99.9,-100.00,West,266,1.0,8.0,-999,0.00,,,0.19,,2013-07-27 06:52:00,
2013-07-27 02:00:00,62.0,-99.9,-100.00,SW,234,2.0,11.0,-999,0.00,,,0.16,,2013-07-27 07:00:00,
2013-07-27 02:44:00,62.0,-99.9,-100.00,SW,234,2.0,11.0,-999,0.00,,,0.16,,2013-07-27 07:44:00,
2013-07-27 02:53:00,62.0,-99.9,-100.00,SW,234,2.0,11.0,-999,0.00,,,0.16,,2013-07-27 07:53:00,
2013-07-27 03:00:00,61.0,-99.9,-100.00,West,270,1.0,9.0,-999,0.00,,,0.12,,2013-07-27 08:00:00,
2013-07-27 03:43:00,61.0,-99.9,-100.00,West,270,1.0,9.0,-999,0.00,,,0.12,,2013-07-27 08:43:00,
2013-07-27 03:53:00,61.0,-99.9,-100.00,West,270,1.0,9.0,-999,0.00,,,0.12,,2013-07-27 08:53:00,
2013-07-27 04:00:00,59.0,-99.9,-100.00,WNW,283,2.0,7.0,-999,0.00,,,0.05,,2013-07-27 09:00:00,
2013-07-27 04:44:00,59.0,-99.9,-100.00,WNW,283,2.0,7.0,-999,0.00,,,0.05,,2013-07-27 09:44:00,
2013-07-27 04:52:00,59.0,-99.9,-100.00,WNW,283,2.0,7.0,-999,0.00,,,0.05,,2013-07-27 09:52:00,
2013-07-27 05:00:00,58.0,-99.9,-100.00,WSW,252,2.0,8.0,-999,0.00,,,0.00,,2013-07-27 10:00:00,
2013-07-27 05:44:00,58.0,-99.9,-100.00,WSW,252,2.0,8.0,-999,0.00,,,0.00,,2013-07-27 10:44:00,
2013-07-27 05:52:00,58.0,-99.9,-100.00,WSW,252,2.0,8.0,-999,0.00,,,0.00,,2013-07-27 10:52:00,
2013-07-27 06:00:00,57.0,-99.9,-100.00,WSW,248,2.0,7.0,-999,0.00,,,0.00,,2013-07-27 11:00:00,
2013-07-27 06:44:00,57.0,-99.9,-100.00,WSW,248,2.0,7.0,-999,0.00,,,0.00,,2013-07-27 11:44:00,
2013-07-27 06:53:00,57.0,-99.9,-100.00,WSW,248,2.0,7.0,-999,0.00,,,0.00,,2013-07-27 11:53:00,
2013-07-27 07:00:00,57.0,-99.9,-100.00,NNE,21,1.0,10.0,-999,0.00,,,0.00,,2013-07-27 12:00:00,
2013-07-27 07:43:00,57.0,-99.9,-100.00,NNE,21,1.0,10.0,-999,0.00,,,0.00,,2013-07-27 12:43:00,
2013-07-27 07:52:00,57.0,-99.9,-100.00,NNE,21,1.0,10.0,-999,0.00,,,0.00,,2013-07-27 12:52:00,
2013-07-27 08:00:00,59.0,-99.9,-100.00,NNE,13,4.0,11.0,-999,0.00,,,0.00,,2013-07-27 13:00:00,
2013-07-27 08:44:00,59.0,-99.9,-100.00,NNE,13,4.0,11.0,-999,0.00,,,0.00,,2013-07-27 13:44:00,
2013-07-27 08:53:00,59.0,-99.9,-100.00,NNE,13,4.0,11.0,-999,0.00,,,0.00,,2013-07-27 13:53:00,
2013-07-27 09:00:00,63.0,-99.9,-100.00,WNW,288,2.0,7.0,-999,0.00,,,0.00,,2013-07-27 14:00:00,
2013-07-27 09:44:00,63.0,-99.9,-100.00,WNW,288,2.0,7.0,-999,0.00,,,0.00,,2013-07-27 14:44:00,
2013-07-27 09:54:00,63.0,-99.9,-100.00,WNW,288,2.0,7.0,-999,0.00,,,0.00,,2013-07-27 14:54:00,
2013-07-27 10:00:00,63.0,-99.9,-100.00,WNW,303,2.0,7.0,-999,0.00,,,0.00,,2013-07-27 15:00:00,
2013-07-27 10:44:00,63.0,-99.9,-100.00,WNW,303,2.0,7.0,-999,0.00,,,0.00,,2013-07-27 15:44:00,
2013-07-27 10:53:00,63.0,-99.9,-100.00,WNW,303,2.0,7.0,-999,0.00,,,0.00,,2013-07-27 15:53:00,
2013-07-27 11:00:00,65.0,-99.9,-100.00,NW,316,2.0,9.0,-999,0.00,,,0.00,,2013-07-27 16:00:00,
2013-07-27 11:43:00,65.0,-99.9,-100.00,NW,316,2.0,9.0,-999,0.00,,,0.00,,2013-07-27 16:43:00,
2013-07-27 11:54:00,65.0,-99.9,-100.00,NW,316,2.0,9.0,-999,0.00,,,0.00,,2013-07-27 16:54:00,
2013-07-27 12:00:00,66.0,-99.9,-100.00,NW,305,1.0,9.0,-999,0.00,,,0.00,,2013-07-27 17:00:00,
2013-07-27 12:43:00,66.0,-99.9,-100.00,NW,305,1.0,9.0,-999,0.00,,,0.00,,2013-07-27 17:43:00,
2013-07-27 12:54:00,66.0,-99.9,-100.00,NW,305,1.0,9.0,-999,0.00,,,0.00,,2013-07-27 17:54:00,
2013-07-27 13:00:00,65.0,-99.9,-100.00,WNW,298,3.0,14.0,-999,0.00,,,0.00,,2013-07-27 18:00:00,
2013-07-27 13:43:00,65.0,-99.9,-100.00,WNW,298,3.0,14.0,-999,0.00,,,0.00,,2013-07-27 18:43:00,
2013-07-27 13:53:00,65.0,-99.9,-100.00,WNW,298,3.0,14.0,-999,0.00,,,0.00,,2013-07-27 18:53:00,
2013-07-27 14:00:00,67.0,-99.9,-100.00,WNW,287,3.0,7.0,-999,0.00,,,0.00,,2013-07-27 19:00:00,
2013-07-27 14:43:00,67.0,-99.9,-100.00,WNW,287,3.0,7.0,-999,0.00,,,0.00,,2013-07-27 19:43:00,
2013-07-27 14:53:00,67.0,-99.9,-100.00,WNW,287,3.0,7.0,-999,0.00,,,0.00,,2013-07-27 19:53:00,
2013-07-27 15:00:00,67.0,-99.9,-100.00,WNW,297,2.0,9.0,-999,0.00,,,0.00,,2013-07-27 20:00:00,
2013-07-27 15:43:00,67.0,-99.9,-100.00,WNW,297,2.0,9.0,-999,0.00,,,0.00,,2013-07-27 20:43:00,
2013-07-27 15:52:00,67.0,-99.9,-100.00,WNW,297,2.0,9.0,-999,0.00,,,0.00,,2013-07-27 20:52:00,
2013-07-27 16:00:00,69.0,-99.9,-100.00,WNW,285,3.0,12.0,-999,0.00,,,0.00,,2013-07-27 21:00:00,
2013-07-27 16:43:00,69.0,-99.9,-100.00,WNW,285,3.0,12.0,-999,0.00,,,0.00,,2013-07-27 21:43:00,
2013-07-27 16:53:00,69.0,-99.9,-100.00,WNW,285,3.0,12.0,-999,0.00,,,0.00,,2013-07-27 21:53:00,
2013-07-27 18:00:00,69.0,-99.9,-100.00,NW,326,2.0,9.0,-999,0.00,,,0.00,,2013-07-27 23:00:00,
2013-07-27 18:44:00,69.0,-99.9,-100.00,NW,326,2.0,9.0,-999,0.00,,,0.00,,2013-07-27 23:44:00,
2013-07-27 18:53:00,69.0,-99.9,-100.00,NW,326,2.0,9.0,-999,0.00,,,0.00,,2013-07-27 23:53:00,
2013-07-27 20:00:00,65.0,-99.9,-100.00,NW,307,1.0,7.0,-999,0.00,,,0.00,,2013-07-28 01:00:00,
2013-07-27 20:43:00,65.0,-99.9,-100.00,NW,307,1.0,7.0,-999,0.00,,,0.00,,2013-07-28 01:43:00,
2013-07-27 20:53:00,65.0,-99.9,-100.00,NW,307,1.0,7.0,-999,0.00,,,0.00,,2013-07-28 01:53:00,
2013-07-27 21:00:00,64.0,-99.9,-100.00,North,9,0.0,5.0,-999,0.00,,,0.00,,2013-07-28 02:00:00,
2013-07-27 21:43:00,64.0,-99.9,-100.00,North,9,0.0,5.0,-999,0.00,,,0.00,,2013-07-28 02:43:00,
2013-07-27 21:53:00,64.0,-99.9,-100.00,North,9,0.0,5.0,-999,0.00,,,0.00,,2013-07-28 02:53:00,
2013-07-27 22:00:00,59.0,-99.9,-100.00,SSW,212,2.0,3.0,-999,0.00,,,0.00,,2013-07-28 03:00:00,
2013-07-27 22:43:00,59.0,-99.9,-100.00,SSW,212,2.0,3.0,-999,0.00,,,0.00,,2013-07-28 03:43:00,
2013-07-27 22:53:00,59.0,-99.9,-100.00,SSW,212,2.0,3.0,-999,0.00,,,0.00,,2013-07-28 03:53:00,
2013-07-27 23:00:00,57.0,-99.9,-100.00,SW,225,2.0,3.0,-999,0.00,,,0.00,,2013-07-28 04:00:00,
2013-07-27 23:43:00,57.0,-99.9,-100.00,SW,225,2.0,3.0,-999,0.00,,,0.00,,2013-07-28 04:43:00,
2013-07-27 23:53:00,57.0,-99.9,-100.00,SW,225,2.0,3.0,-999,0.00,,,0.00,,2013-07-28 04:53:00,